Weather Roundup
Issued by NWS Corpus Christi, TX

Home | Current Version | Previous Version | Text Only | Print | Product List | Glossary On
Versions: 1 2 3 4 5 6 7 8 9 10 11 12 13 14 15 16 17 18 19 20 21 22 23 24 25 26 27 28 29 30 31 32 33 34 35 36 37 38 39 40 41 42 43 44 45 46 47 48 49 50
000
ASUS44 KCRP 300510
HRRCRP

SOUTH TEXAS REGIONAL WEATHER ROUNDUP
NATIONAL WEATHER SERVICE CORPUS CHRISTI TX
1200 AM CDT SAT APR 30 2016


TXZ229>244-300600-
...CORPUS CHRISTI AREA OBSERVATIONS...

CITY           SKY/WX    TMP DP  RH WIND       PRES   REMARKS
CORPUS CHRISTI CLOUDY    80  75  84 S17G24    29.62S
NAS CORPUS CHR CLOUDY    79  78  97 S15G25    29.62F
ROCKPORT       CLOUDY    79  75  87 S10       29.63S
KINGSVILLE NAS CLOUDY    79  79 100 S13       29.62S
ALICE          CLOUDY    78  75  90 S12       29.60F FOG
FALFURRIAS     CLOUDY    81  74  80 SE10      29.61S
$$

...VICTORIA AREA OBSERVATIONS...

CITY           SKY/WX    TMP DP  RH WIND       PRES   REMARKS
VICTORIA       CLOUDY    79  75  87 S12       29.64S
BEEVILLE       CLOUDY    79  78  96 S10G16    29.62F
PLEASANTON     CLOUDY    78  74  90 E3        29.63R FOG
SAN ANTONIO    PTCLDY    71  67  87 CALM      29.64S
$$

...LAREDO AREA OBSERVATIONS...

CITY           SKY/WX    TMP DP  RH WIND       PRES   REMARKS
LAREDO         CLOUDY    81  75  82 SE13      29.60S
COTULLA        CLOUDY    83  72  69 S7        29.60R
DEL RIO        LGT RAIN  73  69  87 NW3       29.66R FOG
MCALLEN        CLOUDY    81  76  84 SE8       29.62F HAZE
HEBBRONVILLE   MOCLDY    78  74  86 S8        29.63S FOG
$$

...OTHER TEXAS OBSERVATIONS...

CITY           SKY/WX    TMP DP  RH WIND       PRES   REMARKS
BROWNSVILLE    CLOUDY    79  77  94 S16       29.63F
HOUSTON        CLOUDY    76  71  85 S14G21    29.65F
COL. STATION   CLOUDY    77  74  90 S13       29.62S THUNDER
AUSTIN         MOCLDY    78  74  87 S6        29.62S
WACO           LGT RAIN  69  66  90 E3        29.58F
FORT WORTH     CLOUDY    72  68  87 NW5       29.61S
WICHITA FALLS  CLOUDY    57  54  89 NW14      29.69F
LUBBOCK        CLEAR     53  44  71 N8        29.79R
EL PASO        CLEAR     64  28  25 NW14G22   29.87R
$$

...MARINE OBSERVATIONS...

STATION/POSITION TIME  SKY/WX   TEMP    WIND        PRES    VSBY  WAVE   SWELL
                                AIR SEA DIR/SP/G                  HT/PER HT/PER
                 (UTC)          (F)     (DEG/KT/KT) (MB)    (MI)  (FT/S) (FT/S)
PORT ARANSAS     0500            78 78  150/ 18/ 19 1003.4F
BUOY 90 E PORT A 0450            77 76  150/ 14/ 17 1004.5S         8/ 8   7/ 8
BUOY 45 SE BAFFI 0450            78 77  160/ 12/ 14 1003.5R         8/ 9   7/ 9
BUOY 200 E PT IS 0450                                 N/A           7/ 8   2/14
BUOY 15 E GALVES 0450            76 76  160/ 17/ 19 1004.7F         6/ 8
$$




USA.gov is the U.S. government's official web portal to all federal, state and local government web resources and services.